• Processing (Info)

  • MPEC 2000-G23 : 2000 FX13

    The following Minor Planet Electronic Circular may be linked-to from your own Web pages, but must not otherwise be redistributed electronically.

    A form allowing access to any MPEC is at the bottom of this page.


    Read MPEC 2000-G22 Read MPEC 2000-G24


    M.P.E.C. 2000-G23                                Issued 2000 Apr. 6, 16:36 UT
    
         The Minor Planet Electronic Circulars contain information on unusual
             minor planets and routine data on comets.  They are published
       on behalf of Commission 20 of the International Astronomical Union by the
              Minor Planet Center, Smithsonian Astrophysical Observatory,
                              Cambridge, MA 02138, U.S.A.
    
                 Prepared using the Tamkin Foundation Computer Network
    
                 BMARSDEN@CFA.HARVARD.EDU or GWILLIAMS@CFA.HARVARD.EDU
              URL http://cfa-www.harvard.edu/iau/mpc.html  ISSN 1523-6714
    
                                       2000 FX13
    
    Observations:
         K00F13X* C2000 03 29.31338 13 39 21.85 +12 50 46.5          19.1        704
         K00F13X  C2000 03 29.33523 13 39 19.35 +12 50 16.3          19.8        704
         K00F13X  C2000 03 29.35081 13 39 17.69 +12 49 54.5          19.8        704
         K00F13X  C2000 03 29.36543 13 39 16.02 +12 49 34.5          19.4        704
         K00F13X  C2000 03 29.38097 13 39 14.38 +12 49 12.4          19.1        704
         K00F13X  C2000 04 02.27226 13 32 35.01 +11 16 56.2          19.1        704
         K00F13X  C2000 04 02.29090 13 32 32.93 +11 16 28.8          19.3        704
         K00F13X  C2000 04 02.30552 13 32 31.34 +11 16 08.3          19.3        704
         K00F13X  C2000 04 02.32016 13 32 29.71 +11 15 45.8          19.2        704
         K00F13X  C2000 04 02.33476 13 32 28.01 +11 15 25.6          19.2        704
         K00F13X  C2000 04 03.30594 13 30 48.33 +10 51 52.3          18.9        704
         K00F13X  C2000 04 03.32033 13 30 46.72 +10 51 31.4          19.3        704
         K00F13X  C2000 04 03.33474 13 30 45.12 +10 51 10.5          19.1        704
         K00F13X  C2000 04 05.07172 13 27 47.13 +10 08 32.6                      557
         K00F13X  C2000 04 05.07638 13 27 46.63 +10 08 25.8                      557
         K00F13X SC2000 04 05.07870 13 27 46.35 +10 08 22.1                      557
         K00F13X  C2000 04 05.20825 13 27 34.60 +10 05 15.9          19.5        704
         K00F13X  C2000 04 05.22284 13 27 33.03 +10 04 54.6          19.7        704
         K00F13X  C2000 04 05.23743 13 27 31.47 +10 04 33.4          19.6        704
         K00F13X  C2000 04 05.25201 13 27 29.94 +10 04 12.2          19.4        704
    
    Observer details:
    557 Ondrejov.  Observer P. Kusnirak.  0.65-m f/3.6 reflector + CCD.
    704 Lincoln Laboratory ETS, New Mexico.  Observers M. Blythe, F. Shelly,
        M. Bezpalko, M. Elowitz, R. Huber.  Measurers J. Stuart, H. Viggh,
        R. Sayer, J. B. Evans.  1.0-m f/2.15 reflector + CCD.
    
    Orbital elements:
    2000 FX13
    Epoch 2000 Mar. 17.0 TT = JDT 2451620.5                 Williams
    M  21.07544              (2000.0)            P               Q
    n   0.39389263     Peri.   97.95782     -0.73514889     -0.66491195
    a   1.8431081      Node    40.51058     +0.51377946     -0.67360209
    e   0.3411839      Incl.   11.73273     +0.44225193     -0.32272638
    P   2.50           H   19.2           G   0.15
    From 20 observations 2000 Mar. 29-Apr. 5.
    
    Ephemeris:
    2000 FX13                a,e,i = 1.84, 0.34, 12                  q = 1.2143
    Date    TT    R. A. (2000) Decl.     Delta      r     Elong.  Phase     V
    2000 03 27    13 43.25   +13 43.9    0.367    1.339   154.5    18.7    18.6
    2000 04 06    13 26.23   +09 45.9    0.388    1.376   162.6    12.6    18.6
    2000 04 16    13 10.85   +05 36.8    0.426    1.416   162.9    12.0    18.8
    2000 04 26    12 59.66   +01 38.0    0.481    1.459   155.9    16.3    19.3
    2000 05 06    12 53.58   -01 58.1    0.552    1.502   147.1    21.4    19.8
    2000 05 16    12 52.50   -05 09.3    0.637    1.548   138.6    25.6    20.3
    2000 05 26    12 55.66   -07 58.4    0.734    1.593   130.8    28.8    20.8
    2000 06 05    13 02.23   -10 29.6    0.843    1.639   123.6    31.0    21.2
    2000 06 15    13 11.55   -12 47.4    0.960    1.685   117.0    32.5    21.6
    2000 06 25    13 23.00   -14 54.4    1.084    1.731   110.9    33.3    22.0
    
    Gareth V. Williams           (C) Copyright 2000 MPC           M.P.E.C. 2000-G23
    

    Read MPEC 2000-G22 Read MPEC 2000-G24


    MPEC number:

    Enter an MPEC number in one of the following forms:

    • 1997-B01 (the full form)
    • J97B01 (the packed version of the full form)
    • B01 (the abbreviated form)